QPF
0.00 0.00 0.00 0.00 0.00 0.00 0.00 0.00 0.00 0.00 0.00 0.00 0.01 0.02 0.01 0.01 0.01 0.01 0.01 0.02 0.02 0.03 0.04 0.04 0.04 0.05 0.04 0.04 0.04 0.05 0.05 0.05 0.05 0.07 0.10 0.12 0.12 0.10
0.00 0.00 0.00 0.00 0.00 0.00 0.00 0.00 0.00 0.00 0.00 0.00 0.00 0.02 0.02 0.01 0.01 0.00 0.00 0.01 0.01 0.01 0.01 0.02 0.02 0.03 0.04 0.03 0.03 0.03 0.03 0.04 0.04 0.04 0.04 0.05 0.08 0.10
0.00 0.00 0.00 0.00 0.00 0.00 0.00 0.00 0.00 0.00 0.00 0.00 0.00 0.01 0.02 0.02 0.01 0.00 0.01 0.01 0.01 0.01 0.01 0.01 0.02 0.02 0.02 0.02 0.03 0.03 0.03 0.03 0.03 0.03 0.03 0.03 0.04 0.05
0.00 0.00 0.00 0.00 0.00 0.00 0.00 0.00 0.00 0.00 0.00 0.00 0.00 0.00 0.00 0.01 0.01 0.00 0.00 0.00 0.00 0.01 0.01 0.01 0.01 0.01 0.02 0.01 0.02 0.02 0.02 0.03 0.03 0.02 0.02 0.03 0.03 0.03
0.00 0.00 0.00 0.00 0.00 0.00 0.00 0.00 0.00 0.00 0.00 0.00 0.00 0.00 0.00 0.00 0.00 0.00 0.00 0.01 0.00 0.00 0.00 0.01 0.01 0.01 0.01 0.01 0.01 0.01 0.01 0.01 0.01 0.02 0.02 0.02 0.02 0.02
0.00 0.00 0.00 0.00 0.00 0.00 0.00 0.00 0.00 0.00 0.00 0.00 0.00 0.00 0.00 0.00 0.00 0.00 0.00 0.00 0.00 0.00 0.00 0.00 0.01 0.01 0.01 0.01 0.01 0.01 0.01 0.00 0.00 0.00 0.01 0.01 0.02 0.02
0.00 0.00 0.00 0.00 0.00 0.00 0.00 0.00 0.00 0.00 0.00 0.00 0.00 0.00 0.00 0.00 0.00 0.00 0.00 0.00 0.00 0.00 0.00 0.00 0.01 0.01 0.01 0.01 0.00 0.00 0.00 0.00 0.00 0.00 0.00 0.01 0.01 0.01
0.00 0.00 0.00 0.00 0.00 0.00 0.00 0.00 0.00 0.00 0.00 0.00 0.00 0.00 0.00 0.00 0.00 0.00 0.00 0.00 0.00 0.00 0.00 0.00 0.00 0.01 0.01 0.01 0.01 0.00 0.00 0.00 0.00 0.00 0.00 0.00 0.00 0.01
0.00 0.00 0.00 0.00 0.00 0.00 0.00 0.00 0.00 0.00 0.00 0.00 0.00 0.00 0.00 0.00 0.00 0.00 0.00 0.00 0.00 0.00 0.00 0.00 0.00 0.00 0.00 0.01 0.01 0.01 0.01 0.01 0.00 0.00 0.00 0.00 0.00 0.00
0.00 0.00 0.00 0.00 0.00 0.00 0.00 0.00 0.00 0.00 0.00 0.00 0.00 0.00 0.00 0.00 0.00 0.00 0.00 0.00 0.00 0.00 0.00 0.00 0.00 0.00 0.00 0.00 0.00 0.00 0.00 0.00 0.00 0.00 0.00 0.00 0.01 0.01
0.00 0.00 0.00 0.00 0.00 0.00 0.00 0.00 0.00 0.00 0.00 0.00 0.00 0.00 0.00 0.00 0.00 0.00 0.00 0.00 0.00 0.00 0.00 0.00 0.00 0.00 0.00 0.00 0.00 0.00 0.00 0.00 0.00 0.00 0.00 0.00 0.01 0.01
0.00 0.00 0.00 0.00 0.00 0.00 0.00 0.00 0.00 0.00 0.00 0.00 0.00 0.00 0.00 0.00 0.00 0.00 0.00 0.00 0.00 0.00 0.00 0.00 0.00 0.00 0.00 0.00 0.00 0.00 0.00 0.00 0.00 0.00 0.00 0.00 0.00 0.00
0.00 0.00 0.00 0.00 0.00 0.00 0.00 0.00 0.00 0.00 0.00 0.00 0.00 0.00 0.00 0.00 0.00 0.00 0.00 0.00 0.00 0.00 0.00 0.00 0.00 0.00 0.00 0.00 0.00 0.00 0.00 0.00 0.00 0.00 0.00 0.00 0.00 0.00
0.00 0.00 0.00 0.00 0.00 0.00 0.00 0.00 0.00 0.00 0.00 0.00 0.00 0.00 0.00 0.00 0.00 0.00 0.00 0.00 0.00 0.00 0.00 0.01 0.01 0.01 0.01 0.00 0.00 0.00 0.00 0.01 0.00 0.00 0.00 0.00 0.01 0.01
0.01 0.00 0.00 0.00 0.00 0.00 0.00 0.00 0.00 0.00 0.00 0.00 0.00 0.00 0.00 0.00 0.00 0.01 0.01 0.01 0.01 0.01 0.01 0.01 0.02 0.01 0.01 0.01 0.00 0.00 0.00 0.01 0.02 0.01 0.01 0.01 0.01 0.01
0.02 0.01 0.01 0.00 0.00 0.00 0.00 0.00 0.00 0.00 0.00 0.00 0.00 0.00 0.00 0.01 0.01 0.01 0.02 0.02 0.02 0.01 0.01 0.02 0.02 0.03 0.02 0.01 0.01 0.01 0.01 0.02 0.01 0.01 0.01 0.01 0.02 0.02
0.02 0.02 0.01 0.01 0.01 0.01 0.00 0.00 0.00 0.00 0.01 0.01 0.01 0.01 0.01 0.02 0.02 0.03 0.03 0.03 0.03 0.03 0.02 0.02 0.03 0.03 0.02 0.02 0.03 0.02 0.02 0.01 0.02 0.02 0.02 0.01 0.01 0.02
0.00 0.00 0.00 0.00 0.00 0.01 0.01 0.01 0.01 0.01 0.01 0.01 0.02 0.02 0.02 0.02 0.02 0.02 0.03 0.05 0.04 0.03 0.02 0.02 0.02 0.03 0.03 0.02 0.02 0.02 0.02 0.02 0.02 0.02 0.03 0.03 0.02 0.02
0.00 0.00 0.00 0.00 0.00 0.00 0.00 0.01 0.01 0.01 0.01 0.02 0.03 0.04 0.04 0.04 0.04 0.03 0.03 0.03 0.02 0.02 0.02 0.03 0.03 0.03 0.03 0.02 0.01 0.01 0.01 0.01 0.02 0.02 0.01 0.02 0.01 0.02
0.00 0.00 0.00 0.00 0.00 0.00 0.01 0.01 0.01 0.02 0.03 0.03 0.04 0.04 0.04 0.05 0.04 0.03 0.03 0.03 0.02 0.02 0.01 0.02 0.03 0.03 0.03 0.02 0.02 0.01 0.01 0.01 0.01 0.01 0.01 0.01 0.01 0.01
0.00 0.00 0.01 0.01 0.01 0.01 0.01 0.02 0.02 0.03 0.04 0.04 0.04 0.04 0.04 0.05 0.05 0.05 0.05 0.05 0.04 0.03 0.02 0.01 0.02 0.03 0.03 0.03 0.02 0.01 0.01 0.01 0.01 0.01 0.01 0.01 0.00 0.00
0.02 0.02 0.02 0.02 0.02 0.02 0.02 0.03 0.04 0.04 0.04 0.05 0.06 0.05 0.04 0.05 0.05 0.05 0.04 0.05 0.05 0.05 0.03 0.02 0.03 0.04 0.05 0.04 0.03 0.02 0.01 0.02 0.02 0.01 0.01 0.01 0.01 0.01
0.03 0.03 0.03 0.03 0.02 0.03 0.03 0.03 0.04 0.04 0.05 0.05 0.05 0.05 0.05 0.05 0.04 0.04 0.04 0.05 0.05 0.05 0.05 0.04 0.04 0.05 0.04 0.04 0.03 0.02 0.02 0.02 0.02 0.02 0.02 0.02 0.01 0.01
MSLP
1020.50 1020.65 1020.82 1020.98 1021.11 1021.19 1021.19 1021.12 1020.99 1020.79 1020.55 1020.27 1019.97 1019.66 1019.36 1019.06 1018.79 1018.56 1018.38 1018.27 1018.22 1018.23 1018.28 1018.35 1018.41 1018.44 1018.42 1018.34 1018.22 1018.08 1017.94 1017.84 1017.81 1017.85 1017.98 1018.19 1018.45 1018.74
1020.44 1020.56 1020.68 1020.81 1020.91 1020.98 1021.00 1020.98 1020.90 1020.77 1020.61 1020.40 1020.15 1019.87 1019.56 1019.24 1018.93 1018.63 1018.38 1018.19 1018.07 1018.01 1018.01 1018.03 1018.06 1018.07 1018.04 1017.95 1017.82 1017.66 1017.51 1017.40 1017.35 1017.37 1017.48 1017.66 1017.89 1018.16
1020.32 1020.40 1020.49 1020.57 1020.63 1020.68 1020.71 1020.71 1020.69 1020.64 1020.56 1020.43 1020.26 1020.03 1019.75 1019.43 1019.09 1018.75 1018.44 1018.18 1017.98 1017.85 1017.79 1017.76 1017.74 1017.71 1017.66 1017.56 1017.42 1017.26 1017.11 1016.99 1016.93 1016.95 1017.04 1017.20 1017.42 1017.65
1020.18 1020.23 1020.26 1020.29 1020.32 1020.34 1020.36 1020.39 1020.42 1020.43 1020.42 1020.38 1020.28 1020.12 1019.89 1019.60 1019.27 1018.91 1018.56 1018.24 1017.98 1017.78 1017.64 1017.54 1017.47 1017.39 1017.30 1017.18 1017.03 1016.87 1016.72 1016.60 1016.54 1016.55 1016.64 1016.78 1016.97 1017.18
1020.02 1020.03 1020.03 1020.01 1020.00 1020.00 1020.01 1020.05 1020.11 1020.17 1020.23 1020.26 1020.23 1020.14 1019.97 1019.72 1019.42 1019.07 1018.70 1018.35 1018.04 1017.78 1017.57 1017.40 1017.25 1017.12 1016.98 1016.82 1016.64 1016.47 1016.31 1016.20 1016.14 1016.14 1016.22 1016.35 1016.52 1016.70
1019.84 1019.82 1019.79 1019.74 1019.70 1019.67 1019.67 1019.71 1019.78 1019.87 1019.97 1020.05 1020.09 1020.06 1019.95 1019.76 1019.50 1019.17 1018.82 1018.46 1018.12 1017.81 1017.54 1017.30 1017.08 1016.88 1016.67 1016.46 1016.25 1016.05 1015.88 1015.75 1015.68 1015.68 1015.74 1015.86 1016.00 1016.15
1019.59 1019.57 1019.52 1019.46 1019.40 1019.36 1019.34 1019.37 1019.43 1019.53 1019.64 1019.75 1019.82 1019.84 1019.79 1019.65 1019.44 1019.16 1018.84 1018.49 1018.14 1017.80 1017.48 1017.19 1016.90 1016.63 1016.36 1016.09 1015.83 1015.59 1015.39 1015.24 1015.15 1015.13 1015.17 1015.27 1015.39 1015.51
1019.26 1019.24 1019.19 1019.13 1019.07 1019.01 1018.98 1018.99 1019.04 1019.12 1019.22 1019.32 1019.41 1019.45 1019.44 1019.35 1019.19 1018.97 1018.69 1018.37 1018.04 1017.69 1017.35 1017.00 1016.67 1016.33 1016.00 1015.67 1015.36 1015.08 1014.84 1014.66 1014.55 1014.50 1014.52 1014.58 1014.66 1014.76
1018.80 1018.80 1018.76 1018.72 1018.66 1018.60 1018.56 1018.54 1018.56 1018.61 1018.68 1018.76 1018.83 1018.88 1018.88 1018.83 1018.72 1018.55 1018.32 1018.05 1017.74 1017.41 1017.06 1016.70 1016.33 1015.95 1015.57 1015.20 1014.84 1014.52 1014.25 1014.04 1013.89 1013.80 1013.78 1013.80 1013.85 1013.91
1018.20 1018.21 1018.21 1018.18 1018.14 1018.09 1018.04 1018.00 1017.98 1017.98 1018.00 1018.04 1018.08 1018.12 1018.12 1018.09 1018.01 1017.89 1017.71 1017.49 1017.22 1016.92 1016.59 1016.23 1015.85 1015.45 1015.05 1014.65 1014.27 1013.92 1013.62 1013.38 1013.19 1013.07 1013.01 1012.99 1012.99 1013.01
1017.48 1017.51 1017.53 1017.53 1017.51 1017.47 1017.42 1017.36 1017.30 1017.26 1017.23 1017.21 1017.20 1017.20 1017.19 1017.17 1017.11 1017.02 1016.88 1016.71 1016.49 1016.22 1015.92 1015.59 1015.22 1014.83 1014.43 1014.03 1013.65 1013.29 1012.98 1012.71 1012.51 1012.35 1012.24 1012.17 1012.12 1012.08
1016.67 1016.72 1016.77 1016.80 1016.80 1016.77 1016.72 1016.64 1016.55 1016.46 1016.38 1016.31 1016.25 1016.21 1016.17 1016.13 1016.08 1016.00 1015.90 1015.76 1015.57 1015.35 1015.09 1014.79 1014.45 1014.09 1013.72 1013.34 1012.98 1012.64 1012.33 1012.06 1011.83 1011.65 1011.50 1011.38 1011.27 1011.17
1015.85 1015.92 1015.99 1016.03 1016.05 1016.03 1015.98 1015.88 1015.77 1015.65 1015.52 1015.40 1015.30 1015.21 1015.14 1015.07 1015.00 1014.92 1014.82 1014.70 1014.54 1014.35 1014.12 1013.85 1013.56 1013.25 1012.92 1012.59 1012.26 1011.95 1011.66 1011.40 1011.17 1010.96 1010.78 1010.61 1010.45 1010.29
1015.08 1015.16 1015.23 1015.29 1015.32 1015.31 1015.25 1015.15 1015.01 1014.86 1014.70 1014.55 1014.40 1014.27 1014.16 1014.05 1013.95 1013.85 1013.73 1013.60 1013.44 1013.26 1013.05 1012.82 1012.57 1012.30 1012.02 1011.74 1011.47 1011.20 1010.94 1010.70 1010.48 1010.26 1010.04 1009.84 1009.62 1009.40
1014.40 1014.48 1014.56 1014.62 1014.65 1014.63 1014.56 1014.45 1014.31 1014.14 1013.96 1013.78 1013.60 1013.43 1013.28 1013.13 1012.98 1012.83 1012.68 1012.51 1012.33 1012.14 1011.93 1011.71 1011.49 1011.26 1011.03 1010.80 1010.57 1010.35 1010.14 1009.92 1009.70 1009.48 1009.25 1009.01 1008.75 1008.48
1013.83 1013.90 1013.97 1014.02 1014.03 1014.00 1013.93 1013.81 1013.66 1013.48 1013.30 1013.10 1012.90 1012.70 1012.50 1012.31 1012.11 1011.90 1011.68 1011.46 1011.23 1011.00 1010.77 1010.54 1010.33 1010.12 1009.93 1009.74 1009.56 1009.38 1009.20 1009.01 1008.81 1008.59 1008.34 1008.08 1007.79 1007.48
1013.33 1013.40 1013.45 1013.47 1013.46 1013.41 1013.32 1013.20 1013.05 1012.87 1012.68 1012.48 1012.28 1012.06 1011.83 1011.58 1011.32 1011.04 1010.75 1010.45 1010.15 1009.86 1009.59 1009.33 1009.10 1008.90 1008.72 1008.57 1008.42 1008.28 1008.12 1007.96 1007.76 1007.54 1007.29 1007.01 1006.70 1006.38
1012.86 1012.91 1012.93 1012.93 1012.89 1012.81 1012.71 1012.58 1012.43 1012.26 1012.09 1011.90 1011.69 1011.46 1011.20 1010.92 1010.60 1010.25 1009.88 1009.49 1009.11 1008.75 1008.41 1008.11 1007.85 1007.64 1007.46 1007.31 1007.18 1007.06 1006.92 1006.77 1006.58 1006.36 1006.11 1005.81 1005.50 1005.16
1012.37 1012.39 1012.38 1012.34 1012.27 1012.17 1012.05 1011.91 1011.77 1011.63 1011.47 1011.30 1011.10 1010.88 1010.60 1010.28 1009.91 1009.50 1009.05 1008.59 1008.12 1007.68 1007.27 1006.92 1006.61 1006.37 1006.18 1006.03 1005.90 1005.79 1005.66 1005.51 1005.32 1005.10 1004.84 1004.54 1004.21 1003.87
1011.82 1011.81 1011.77 1011.69 1011.58 1011.46 1011.33 1011.20 1011.07 1010.95 1010.82 1010.68 1010.51 1010.29 1010.02 1009.68 1009.27 1008.80 1008.29 1007.75 1007.21 1006.69 1006.22 1005.80 1005.45 1005.18 1004.96 1004.80 1004.66 1004.54 1004.40 1004.25 1004.06 1003.82 1003.55 1003.24 1002.90 1002.56
1011.22 1011.18 1011.10 1010.99 1010.86 1010.72 1010.58 1010.46 1010.35 1010.25 1010.16 1010.06 1009.92 1009.72 1009.46 1009.11 1008.68 1008.17 1007.61 1007.01 1006.41 1005.83 1005.29 1004.82 1004.43 1004.11 1003.87 1003.68 1003.52 1003.39 1003.24 1003.07 1002.86 1002.61 1002.32 1001.99 1001.64 1001.28
1010.61 1010.54 1010.43 1010.30 1010.14 1009.99 1009.85 1009.74 1009.66 1009.60 1009.54 1009.48 1009.37 1009.20 1008.96 1008.61 1008.17 1007.64 1007.05 1006.41 1005.75 1005.12 1004.53 1004.01 1003.57 1003.22 1002.94 1002.72 1002.54 1002.38 1002.21 1002.01 1001.78 1001.51 1001.19 1000.84 1000.46 1000.08
1010.05 1009.96 1009.83 1009.67 1009.50 1009.35 1009.22 1009.12 1009.06 1009.03 1009.01 1008.98 1008.91 1008.77 1008.54 1008.21 1007.77 1007.23 1006.61 1005.94 1005.25 1004.57 1003.94 1003.38 1002.90 1002.50 1002.18 1001.93 1001.72 1001.52 1001.32 1001.09 1000.83 1000.52 1000.17 999.79 999.38 998.97
Thickness
5684 5682 5680 5679 5678 5677 5675 5673 5667 5661 5661 5666 5670 5674 5675 5676 5676 5676 5676 5677 5678 5678 5679 5680 5680 5681 5682 5683 5684 5685 5686 5687 5688 5689 5690 5691 5691 5692
5681 5679 5677 5676 5675 5674 5672 5670 5667 5662 5657 5661 5664 5668 5669 5670 5670 5670 5670 5671 5672 5673 5674 5674 5675 5676 5677 5677 5678 5679 5680 5681 5683 5684 5685 5686 5687 5688
5678 5677 5674 5673 5671 5670 5668 5666 5663 5660 5655 5656 5660 5662 5663 5664 5664 5665 5665 5666 5667 5668 5669 5669 5670 5671 5671 5672 5673 5674 5675 5676 5677 5678 5679 5681 5682 5683
5675 5673 5671 5670 5668 5666 5664 5662 5659 5657 5654 5651 5653 5655 5657 5658 5658 5659 5660 5661 5661 5662 5663 5664 5665 5665 5666 5667 5667 5668 5669 5670 5671 5672 5674 5675 5676 5677
5673 5671 5669 5667 5664 5662 5660 5658 5656 5655 5651 5648 5647 5648 5649 5651 5651 5652 5653 5654 5655 5657 5658 5659 5659 5659 5660 5661 5662 5663 5664 5665 5666 5666 5667 5668 5670 5671
5672 5670 5668 5665 5662 5660 5657 5655 5653 5650 5647 5644 5642 5642 5642 5644 5644 5643 5643 5645 5647 5650 5652 5652 5653 5653 5654 5655 5656 5657 5658 5659 5660 5661 5662 5662 5664 5665
5670 5668 5666 5664 5662 5659 5656 5653 5649 5645 5642 5639 5637 5636 5636 5636 5635 5636 5635 5637 5639 5642 5643 5644 5645 5646 5647 5648 5650 5651 5653 5653 5654 5655 5655 5656 5657 5659
5666 5665 5664 5662 5661 5658 5656 5653 5649 5643 5639 5635 5633 5631 5631 5631 5631 5630 5629 5628 5628 5634 5634 5636 5638 5639 5641 5642 5644 5645 5646 5647 5648 5649 5649 5650 5651 5652
5664 5662 5661 5661 5658 5655 5652 5650 5647 5644 5640 5636 5632 5630 5629 5629 5627 5625 5624 5622 5623 5627 5626 5628 5631 5632 5635 5637 5638 5639 5640 5641 5642 5642 5643 5644 5645 5646
5662 5660 5658 5656 5655 5651 5648 5645 5643 5641 5639 5636 5633 5632 5631 5629 5626 5623 5621 5620 5621 5622 5621 5620 5624 5626 5630 5631 5632 5633 5633 5634 5635 5635 5636 5637 5638 5639
5660 5658 5656 5653 5652 5649 5644 5640 5638 5637 5637 5635 5633 5631 5629 5627 5624 5619 5616 5612 5613 5616 5616 5614 5618 5620 5622 5625 5627 5627 5627 5627 5628 5628 5629 5630 5631 5631
5656 5655 5653 5651 5649 5645 5640 5636 5633 5634 5633 5631 5629 5627 5625 5623 5621 5617 5613 5609 5608 5608 5612 5609 5611 5611 5612 5617 5618 5619 5619 5620 5621 5622 5622 5623 5623 5622
5652 5650 5649 5648 5645 5642 5638 5634 5633 5631 5627 5624 5622 5621 5620 5619 5618 5616 5613 5609 5605 5606 5609 5605 5604 5603 5602 5606 5609 5610 5611 5612 5613 5614 5615 5616 5616 5615
5649 5648 5646 5644 5641 5638 5634 5632 5630 5625 5621 5618 5615 5615 5614 5614 5614 5613 5611 5608 5607 5606 5607 5603 5599 5598 5596 5597 5600 5603 5604 5605 5605 5607 5609 5610 5610 5610
5648 5646 5643 5640 5636 5633 5631 5628 5624 5619 5615 5611 5611 5612 5612 5611 5609 5607 5606 5604 5603 5602 5601 5599 5596 5595 5592 5592 5595 5596 5596 5599 5599 5600 5602 5602 5603 5603
5643 5640 5637 5634 5631 5629 5626 5624 5620 5615 5611 5609 5608 5608 5607 5605 5603 5601 5598 5597 5595 5596 5597 5596 5594 5591 5589 5589 5589 5591 5590 5590 5594 5594 5594 5596 5597 5598
5638 5633 5629 5626 5624 5622 5620 5618 5615 5611 5607 5605 5603 5601 5600 5598 5597 5595 5592 5590 5587 5588 5589 5590 5589 5587 5586 5584 5584 5585 5586 5586 5588 5588 5587 5589 5592 5593
5630 5626 5623 5621 5618 5617 5614 5612 5610 5607 5605 5601 5598 5596 5594 5592 5591 5589 5585 5582 5581 5582 5582 5582 5580 5579 5578 5580 5580 5580 5581 5582 5583 5583 5581 5582 5586 5589
5621 5620 5617 5615 5613 5611 5609 5607 5605 5603 5600 5596 5593 5591 5588 5586 5583 5581 5579 5577 5576 5576 5576 5575 5572 5569 5569 5573 5579 5577 5576 5577 5577 5577 5576 5577 5580 5585
5615 5614 5612 5610 5607 5605 5603 5601 5599 5596 5592 5590 5587 5585 5582 5578 5576 5574 5573 5571 5570 5570 5569 5569 5566 5565 5564 5567 5570 5572 5572 5571 5571 5571 5573 5574 5576 5579
5611 5608 5606 5604 5601 5599 5596 5593 5591 5589 5586 5582 5579 5577 5574 5571 5569 5567 5565 5564 5563 5562 5562 5563 5564 5563 5562 5560 5560 5565 5567 5567 5567 5567 5567 5567 5569 5571
5605 5603 5600 5597 5594 5592 5589 5586 5583 5580 5577 5574 5572 5570 5567 5564 5561 5560 5558 5556 5556 5555 5556 5558 5558 5556 5554 5553 5555 5558 5561 5563 5563 5564 5564 5564 5563 5565
5598 5595 5593 5590 5587 5584 5581 5578 5575 5572 5569 5566 5564 5561 5558 5556 5554 5552 5551 5549 5548 5548 5549 5550 5550 5549 5548 5549 5550 5552 5554 5556 5557 5558 5561 5562 5562 5564